Greybull, WY

10:23 AM MDT on September 24, 2017 (GMT -0600)
South Big Horn County

Weather History for KGEY - July, 2013

Change the Weather History Date:

Monday, July 8, 2013

  Actual Average Record
Temperature  
Mean Temperature 79 °F 73 °F  
Max Temperature 94 °F 89 °F 107 °F (2002)
Min Temperature 64 °F 57 °F 48 °F (2010)
Degree Days  
Heating Degree Days 0 0  
Month to date heating degree days 0 1  
Since 1 June heating degree days 36 71  
Since 1 July heating degree days 0 1  
Cooling Degree Days 14 8  
Month to date cooling degree days 105 59  
Year to date cooling degree days 305 185  
Since 1 June cooling degree days 278 165  
Growing Degree Days 30 (Base 50)    
Moisture  
Dew Point 46 °F    
Average Humidity 39    
Maximum Humidity 63    
Minimum Humidity 15    
Precipitation  
Precipitation 0.00 in 0.03 in 0.10 in (1958)
Month to date precipitation 0.25 0.24  
Year to date precipitation 2.55 4.61  
Sea Level Pressure  
Sea Level Pressure 29.85 in    
Wind  
Wind Speed 9 mph (SSE)    
Max Wind Speed 24 mph    
Max Gust Speed 30 mph    
Visibility 10 miles    
Events Thunderstorm    
T = Trace of Precipitation, MM = Missing Value Source: NWS Daily Summary

Daily Weather History Graph

Daily Weather History Graph

Search for Another Location

Airport or City:

Trip Planner

Search our weather history database for the weather conditions in past years. The results will help you decide how hot, cold, wet, or windy it might be!

Date:

Astronomy

Jul. 08, 2013 Rise Set
Actual Time 5:36 AM MDT 8:58 PM MDT
Civil Twilight 4:59 AM MDT 9:34 PM MDT
Nautical Twilight 4:12 AM MDT 10:21 PM MDT
Astronomical Twilight 3:13 AM MDT 11:20 PM MDT
Moon 6:11 AM MDT (7/8) 8:57 PM MDT (7/8)
Length of Visible Light 16h 34m
Length of Day
15h 22m
New Moon, 0% of the Moon is Illuminated
Jul 8
New Moon
Jul 15
First Quarter
Jul 22
Full
Jul 29
Last Quarter
Aug 6
New

Hourly Weather History & Observations

Time (MDT) Temp. Dew Point Humidity Pressure Visibility Wind Dir Wind Speed Gust Speed Precip Events Conditions
12:53 AM 68.0 °F 52.0 °F 56% 29.89 in - Calm Calm - N/A   Clear
1:53 AM 68.0 °F 52.0 °F 56% 29.88 in - SSE 5.8 mph - N/A   Clear
2:53 AM 68.0 °F 53.1 °F 59% 29.86 in - Calm Calm - N/A   Mostly Cloudy
3:53 AM 68.0 °F 51.1 °F 55% 29.85 in - East 4.6 mph - N/A   Mostly Cloudy
4:53 AM 66.9 °F 53.1 °F 61% 29.87 in - West 5.8 mph - N/A   Partly Cloudy
5:53 AM 66.0 °F 52.0 °F 60% 29.89 in - NE 4.6 mph - N/A   Clear
6:53 AM 66.0 °F 52.0 °F 60% 29.90 in - SE 3.5 mph - N/A   Clear
7:53 AM 72.0 °F 50.0 °F 46% 29.90 in - East 8.1 mph - N/A   Clear
8:53 AM 77.0 °F 48.9 °F 37% 29.90 in - SE 5.8 mph - N/A   Clear
9:53 AM 79.0 °F 48.0 °F 34% 29.88 in - ESE 4.6 mph - N/A   Clear
10:53 AM 84.0 °F 46.9 °F 27% 29.87 in - SE 9.2 mph - N/A   Clear
11:53 AM 86.0 °F 48.0 °F 27% 29.86 in 10.0 mi SSW 10.4 mph 19.6 mph N/A   Clear
12:53 PM 89.1 °F 46.9 °F 23% 29.83 in 10.0 mi SSE 11.5 mph 17.3 mph N/A   Clear
1:53 PM 93.0 °F 41.0 °F 16% 29.79 in 10.0 mi ESE 6.9 mph - N/A   Clear
2:53 PM 91.0 °F 37.0 °F 15% 29.79 in 10.0 mi WSW 6.9 mph - N/A   Clear
3:29 PM 87.8 °F 35.6 °F 16% 29.93 in 10.0 mi ENE 8.1 mph - N/A Thunderstorm Scattered Clouds
3:48 PM 86.0 °F 37.4 °F 18% 29.95 in 10.0 mi South 18.4 mph 23.0 mph N/A   Partly Cloudy
3:53 PM 82.9 °F 42.1 °F 24% 29.82 in 10.0 mi South 20.7 mph 26.5 mph N/A   Partly Cloudy
4:53 PM 89.1 °F 39.0 °F 17% 29.78 in 10.0 mi SSE 15.0 mph - N/A   Clear
5:53 PM 89.1 °F 37.9 °F 16% 29.77 in 10.0 mi ESE 13.8 mph 21.9 mph N/A   Clear
6:53 PM 87.1 °F 39.9 °F 19% 29.77 in 10.0 mi SE 12.7 mph 21.9 mph N/A   Clear
7:53 PM 84.0 °F 41.0 °F 22% 29.78 in 10.0 mi South 8.1 mph - N/A   Clear
8:53 PM 80.1 °F 43.0 °F 27% 29.83 in 10.0 mi North 19.6 mph 26.5 mph N/A   Clear
9:53 PM 75.9 °F 45.0 °F 33% 29.84 in 10.0 mi West 5.8 mph - N/A   Clear
10:53 PM 72.0 °F 45.0 °F 38% 29.85 in 10.0 mi WSW 9.2 mph - N/A   Clear
11:53 PM 72.0 °F 48.0 °F 43% 29.88 in 10.0 mi NW 13.8 mph - N/A   Clear